| time (UTC) | temp C | wind direction | speed KPH | gust KPH | rain 1hr cm | rain 24hr cm | rain mn cm | humidity % | barometer mb |
| 20260903174507 | 15 | 146 | 4.8 | 20.9 | 0.00 | 1.35 | 0.23 | 92 | 1008.5 |
| 20260903174006 | 15 | 88 | 8.0 | 20.9 | 0.00 | 1.35 | 0.23 | 93 | 1008.5 |
| 20260903173006 | 14 | 113 | 4.8 | 20.9 | 0.00 | 1.35 | 0.23 | 94 | 1008.5 |
| 20260903172507 | 14 | 98 | 6.4 | 20.9 | 0.00 | 1.35 | 0.23 | 94 | 1008.5 |
| 20260903172006 | 13 | 100 | 3.2 | 12.9 | 0.00 | 1.35 | 0.23 | 94 | 1008.5 |
| 20260903171507 | 13 | 109 | 8.0 | 12.9 | 0.00 | 1.35 | 0.23 | 95 | 1008.5 |
| 20260903171007 | 13 | 113 | 1.6 | 11.3 | 0.00 | 1.35 | 0.23 | 95 | 1009.5 |
| 20260903170506 | 13 | 144 | 1.6 | 11.3 | 0.00 | 1.35 | 0.23 | 95 | 1009.5 |
| 20260903170006 | 13 | 124 | 3.2 | 9.7 | 0.00 | 1.35 | 0.23 | 95 | 1009.5 |
| 20260903165506 | 13 | 138 | 3.2 | 11.3 | 0.00 | 1.35 | 0.23 | 95 | 1009.5 |
| 20260903165006 | 13 | 85 | 0.0 | 11.3 | 0.00 | 1.35 | 0.23 | 95 | 1009.5 |
| 20260903164006 | 13 | 128 | 3.2 | 11.3 | 0.00 | 1.35 | 0.23 | 95 | 1008.5 |
| 20260903163507 | 12 | 161 | 3.2 | 11.3 | 0.00 | 1.35 | 0.23 | 96 | 1008.5 |
| 20260903162507 | 12 | 122 | 3.2 | 8.0 | 0.00 | 1.35 | 0.23 | 96 | 1009.5 |
| 20260903162007 | 12 | 115 | 0.0 | 4.8 | 0.00 | 1.35 | 0.23 | 96 | 1009.5 |
| 20260903161506 | 12 | 85 | 0.0 | 4.8 | 0.00 | 1.35 | 0.23 | 95 | 1009.5 |
| 20260903161006 | 12 | 91 | 0.0 | 0.0 | 0.00 | 1.35 | 0.23 | 95 | 1009.5 |
| 20260903160006 | 12 | 192 | 0.0 | 8.0 | 0.00 | 1.35 | 0.23 | 95 | 1009.5 |
| 20260903155506 | 12 | 153 | 0.0 | 20.9 | 0.00 | 1.35 | 0.23 | 95 | 1009.5 |
| 20260903155006 | 12 | 148 | 6.4 | 20.9 | 0.00 | 1.35 | 0.23 | 95 | 1009.5 |
| 20260903154506 | 12 | 133 | 4.8 | 20.9 | 0.00 | 1.35 | 0.23 | 95 | 1009.5 |
| 20260903154006 | 12 | 135 | 11.3 | 20.9 | 0.00 | 1.35 | 0.23 | 95 | 1009.5 |
| 20260903152506 | 12 | 127 | 14.5 | 24.1 | 0.00 | 1.35 | 0.23 | 95 | 1009.5 |
| 20260903152006 | 12 | 157 | 11.3 | 27.4 | 0.13 | 1.35 | 0.23 | 95 | 1009.5 |
| 20260903151506 | 12 | 142 | 9.7 | 27.4 | 0.13 | 1.35 | 0.23 | 95 | 1009.5 |
| 20260903151006 | 12 | 129 | 11.3 | 33.8 | 0.13 | 1.35 | 0.23 | 95 | 1008.5 |
| 20260903150506 | 12 | 149 | 12.9 | 33.8 | 0.13 | 1.35 | 0.23 | 95 | 1008.5 |
| 20260903150007 | 12 | 146 | 14.5 | 24.1 | 0.13 | 1.35 | 0.23 | 95 | 1008.5 |
| 20260903145509 | 12 | 153 | 14.5 | 25.7 | 0.13 | 1.35 | 0.23 | 95 | 1008.5 |
| 20260903145006 | 12 | 171 | 12.9 | 25.7 | 0.13 | 1.35 | 0.23 | 95 | 1008.5 |
| 20260903144006 | 12 | 138 | 9.7 | 24.1 | 0.13 | 1.35 | 0.23 | 94 | 1008.5 |
| 20260903143506 | 12 | 168 | 11.3 | 29.0 | 0.13 | 1.35 | 0.23 | 93 | 1008.5 |
| 20260903143006 | 12 | 146 | 14.5 | 29.0 | 0.13 | 1.35 | 0.23 | 93 | 1008.5 |
| 20260903142506 | 12 | 152 | 14.5 | 27.4 | 0.13 | 1.35 | 0.23 | 93 | 1008.5 |
| 20260903142007 | 12 | 137 | 11.3 | 32.2 | 0.00 | 1.22 | 0.13 | 92 | 1008.5 |
| 20260903141507 | 12 | 152 | 17.7 | 32.2 | 0.00 | 1.22 | 0.13 | 92 | 1008.5 |
| 20260903140506 | 12 | 134 | 11.3 | 20.9 | 0.00 | 1.22 | 0.13 | 92 | 1007.5 |
| 20260903140006 | 12 | 137 | 14.5 | 22.5 | 0.00 | 1.22 | 0.13 | 92 | 1007.5 |
| 20260903135506 | 12 | 143 | 12.9 | 22.5 | 0.00 | 1.22 | 0.13 | 92 | 1008.5 |
| 20260903135006 | 12 | 148 | 11.3 | 20.9 | 0.00 | 1.22 | 0.13 | 92 | 1008.5 |
| 20260903134506 | 12 | 148 | 8.0 | 20.9 | 0.00 | 1.22 | 0.13 | 91 | 1008.5 |
| 20260903134006 | 12 | 148 | 9.7 | 24.1 | 0.00 | 1.22 | 0.13 | 91 | 1008.5 |
| 20260903133506 | 12 | 135 | 6.4 | 24.1 | 0.00 | 1.22 | 0.13 | 91 | 1008.5 |
| 20260903133006 | 12 | 140 | 9.7 | 24.1 | 0.00 | 1.22 | 0.13 | 91 | 1008.5 |
| 20260903132506 | 12 | 118 | 11.3 | 20.9 | 0.00 | 1.22 | 0.13 | 91 | 1008.5 |
| 20260903132006 | 12 | 135 | 11.3 | 24.1 | 0.00 | 1.22 | 0.13 | 91 | 1008.5 |
| 20260903131505 | 12 | 148 | 14.5 | 24.1 | 0.00 | 1.22 | 0.13 | 91 | 1008.5 |
| 20260903131006 | 12 | 140 | 12.9 | 27.4 | 0.00 | 1.22 | 0.13 | 91 | 1008.5 |
| 20260903130506 | 12 | 135 | 17.7 | 27.4 | 0.00 | 1.22 | 0.13 | 91 | 1008.5 |
| 20260903125506 | 12 | 137 | 14.5 | 37.0 | 0.00 | 1.22 | 0.13 | 91 | 1007.5 |
| 20260903125006 | 12 | 168 | 19.3 | 37.0 | 0.00 | 1.22 | 0.13 | 92 | 1007.5 |
| 20260903124505 | 12 | 138 | 17.7 | 29.0 | 0.00 | 1.22 | 0.13 | 92 | 1007.5 |
| 20260903124006 | 12 | 125 | 14.5 | 29.0 | 0.00 | 1.22 | 0.13 | 92 | 1008.5 |
| 20260903123506 | 12 | 152 | 17.7 | 29.0 | 0.00 | 1.22 | 0.13 | 92 | 1008.5 |
| 20260903123006 | 12 | 141 | 14.5 | 27.4 | 0.00 | 1.22 | 0.13 | 92 | 1008.5 |
| 20260903122507 | 12 | 148 | 14.5 | 27.4 | 0.00 | 1.22 | 0.13 | 92 | 1008.5 |
| 20260903122006 | 12 | 140 | 17.7 | 27.4 | 0.00 | 1.22 | 0.13 | 92 | 1008.5 |
| 20260903121506 | 12 | 196 | 12.9 | 32.2 | 0.00 | 1.22 | 0.13 | 93 | 1008.5 |
| 20260903121005 | 12 | 151 | 19.3 | 32.2 | 0.00 | 1.22 | 0.13 | 93 | 1008.5 |
| 20260903120506 | 12 | 132 | 17.7 | 24.1 | 0.00 | 1.22 | 0.13 | 93 | 1008.5 |
| 20260903120006 | 12 | 160 | 14.5 | 22.5 | 0.00 | 1.22 | 0.13 | 93 | 1008.5 |
| 20260903115506 | 12 | 148 | 12.9 | 24.1 | 0.00 | 1.22 | 0.13 | 94 | 1007.5 |
| 20260903115005 | 12 | 186 | 12.9 | 24.1 | 0.00 | 1.22 | 0.13 | 94 | 1007.5 |
| 20260903114005 | 12 | 147 | 12.9 | 24.1 | 0.00 | 1.22 | 0.13 | 94 | 1008.5 |
| 20260903113505 | 12 | 151 | 14.5 | 24.1 | 0.00 | 1.22 | 0.13 | 94 | 1008.5 |
| 20260903112506 | 12 | 136 | 17.7 | 27.4 | 0.00 | 1.22 | 0.13 | 95 | 1008.5 |
| 20260903112006 | 12 | 134 | 14.5 | 27.4 | 0.00 | 1.22 | 0.13 | 95 | 1008.5 |
| 20260903111505 | 12 | 140 | 14.5 | 27.4 | 0.00 | 1.22 | 0.13 | 95 | 1008.5 |
| 20260903111005 | 12 | 156 | 9.7 | 32.2 | 0.00 | 1.22 | 0.13 | 95 | 1008.5 |
| 20260903110505 | 12 | 153 | 11.3 | 32.2 | 0.00 | 1.22 | 0.13 | 95 | 1008.5 |
| 20260903110005 | 12 | 147 | 14.5 | 32.2 | 0.00 | 1.22 | 0.13 | 95 | 1008.5 |
| 20260903105506 | 12 | 140 | 14.5 | 25.7 | 0.00 | 1.22 | 0.13 | 95 | 1008.5 |
| 20260903105005 | 12 | 129 | 11.3 | 25.7 | 0.00 | 1.22 | 0.13 | 95 | 1008.5 |
| 20260903104506 | 12 | 166 | 9.7 | 33.8 | 0.00 | 1.22 | 0.13 | 95 | 1008.5 |
| 20260903104006 | 12 | 135 | 17.7 | 33.8 | 0.00 | 1.22 | 0.13 | 95 | 1008.5 |
| 20260903103506 | 12 | 146 | 8.0 | 29.0 | 0.00 | 1.22 | 0.13 | 95 | 1008.5 |
| 20260903102506 | 12 | 131 | 16.1 | 33.8 | 0.00 | 1.22 | 0.13 | 96 | 1008.5 |
| 20260903101505 | 12 | 154 | 14.5 | 33.8 | 0.00 | 1.22 | 0.13 | 96 | 1008.5 |
| 20260903100006 | 12 | 122 | 9.7 | 24.1 | 0.00 | 1.22 | 0.13 | 97 | 1008.5 |
| 20260903095006 | 12 | 147 | 12.9 | 25.7 | 0.00 | 1.22 | 0.13 | 97 | 1008.5 |
| 20260903094506 | 12 | 151 | 11.3 | 27.4 | 0.00 | 1.22 | 0.13 | 97 | 1008.5 |
| 20260903094006 | 12 | 135 | 12.9 | 27.4 | 0.00 | 1.22 | 0.13 | 97 | 1008.5 |
| 20260903093006 | 12 | 144 | 11.3 | 25.7 | 0.00 | 1.22 | 0.13 | 98 | 1008.5 |
| 20260903092505 | 12 | 145 | 11.3 | 25.7 | 0.00 | 1.22 | 0.13 | 98 | 1008.5 |
| 20260903092006 | 12 | 145 | 4.8 | 20.9 | 0.00 | 1.22 | 0.13 | 98 | 1008.5 |
| 20260903091505 | 12 | 125 | 9.7 | 20.9 | 0.00 | 1.22 | 0.13 | 98 | 1008.5 |
| 20260903091006 | 12 | 150 | 9.7 | 32.2 | 0.00 | 1.22 | 0.13 | 98 | 1008.5 |
| 20260903090506 | 12 | 161 | 12.9 | 32.2 | 0.00 | 1.22 | 0.13 | 98 | 1008.5 |
| 20260903090005 | 12 | 148 | 6.4 | 16.1 | 0.00 | 1.22 | 0.13 | 98 | 1008.5 |
| 20260903085505 | 12 | 132 | 4.8 | 14.5 | 0.00 | 1.22 | 0.13 | 98 | 1008.5 |
| 20260903085005 | 12 | 145 | 8.0 | 16.1 | 0.00 | 1.22 | 0.13 | 97 | 1008.5 |
| 20260903084506 | 12 | 142 | 4.8 | 16.1 | 0.13 | 1.22 | 0.13 | 98 | 1008.5 |
| 20260903084005 | 12 | 146 | 4.8 | 16.1 | 0.13 | 1.22 | 0.13 | 98 | 1008.5 |
| 20260903083505 | 12 | 149 | 4.8 | 35.4 | 0.13 | 1.22 | 0.13 | 98 | 1008.5 |
| 20260903083005 | 12 | 146 | 11.3 | 35.4 | 0.13 | 1.22 | 0.13 | 98 | 1008.5 |
| 20260903082505 | 12 | 163 | 9.7 | 24.1 | 0.13 | 1.22 | 0.13 | 98 | 1008.5 |
| 20260903082007 | 12 | 146 | 14.5 | 24.1 | 0.13 | 1.22 | 0.13 | 98 | 1008.5 |
| 20260903081005 | 12 | 143 | 8.0 | 24.1 | 0.13 | 1.22 | 0.13 | 98 | 1008.5 |
| 20260903080505 | 12 | 138 | 14.5 | 24.1 | 0.13 | 1.22 | 0.13 | 98 | 1008.5 |
| 20260903080005 | 12 | 154 | 6.4 | 20.9 | 0.13 | 1.22 | 0.13 | 98 | 1008.5 |
| 20260903075505 | 12 | 132 | 9.7 | 24.1 | 0.13 | 1.22 | 0.13 | 98 | 1009.5 |
| 20260903075005 | 12 | 166 | 8.0 | 24.1 | 0.13 | 1.22 | 0.13 | 98 | 1009.5 |
| 20260903074505 | 12 | 145 | 11.3 | 24.1 | 0.00 | 1.12 | 0.00 | 98 | 1009.5 |
| 20260903074006 | 12 | 202 | 11.3 | 24.1 | 0.00 | 1.12 | 0.00 | 98 | 1008.5 |
| 20260903073505 | 12 | 136 | 9.7 | 22.5 | 0.00 | 1.12 | 0.00 | 98 | 1008.5 |
| 20260903073005 | 12 | 159 | 16.1 | 33.8 | 0.00 | 1.12 | 0.00 | 98 | 1008.5 |
| 20260903071005 | 12 | 134 | 16.1 | 38.6 | 0.00 | 1.12 | 0.00 | 98 | 1008.5 |
| 20260903070506 | 12 | 137 | 14.5 | 35.4 | 0.00 | 1.12 | 0.00 | 98 | 1008.5 |
| 20260903070006 | 12 | 154 | 14.5 | 37.0 | 0.00 | 1.12 | 0.00 | 98 | 1008.5 |
| 20260903065505 | 12 | 152 | 14.5 | 37.0 | 0.00 | 1.12 | 1.12 | 98 | 1008.5 |
| 20260903065005 | 12 | 140 | 11.3 | 33.8 | 0.00 | 1.12 | 1.12 | 98 | 1008.5 |
| 20260903064505 | 12 | 141 | 14.5 | 41.8 | 0.00 | 1.12 | 1.12 | 97 | 1008.5 |
| 20260903064005 | 12 | 169 | 16.1 | 41.8 | 0.00 | 1.12 | 1.12 | 97 | 1008.5 |
| 20260903063505 | 12 | 165 | 16.1 | 29.0 | 0.00 | 1.12 | 1.12 | 97 | 1008.5 |
| 20260903063005 | 12 | 199 | 11.3 | 24.1 | 0.00 | 1.12 | 1.12 | 96 | 1008.5 |
| 20260903062505 | 12 | 203 | 11.3 | 20.9 | 0.00 | 1.12 | 1.12 | 96 | 1008.5 |
| 20260903062005 | 12 | 194 | 9.7 | 24.1 | 0.00 | 1.12 | 1.12 | 96 | 1008.5 |
| 20260903061505 | 12 | 183 | 11.3 | 33.8 | 0.00 | 1.12 | 1.12 | 96 | 1008.5 |
| 20260903061005 | 13 | 163 | 14.5 | 33.8 | 0.00 | 1.12 | 1.12 | 96 | 1008.5 |
| 20260903060505 | 12 | 169 | 11.3 | 29.0 | 0.00 | 1.12 | 1.12 | 96 | 1008.5 |
| 20260903060005 | 12 | 197 | 9.7 | 49.9 | 0.00 | 1.12 | 1.12 | 97 | 1008.5 |
| 20260903055504 | 12 | 178 | 16.1 | 49.9 | 0.00 | 1.12 | 1.12 | 97 | 1008.5 |
| 20260903055005 | 12 | 166 | 12.9 | 25.7 | 0.00 | 1.12 | 1.12 | 97 | 1008.5 |
| 20260903054505 | 12 | 190 | 11.3 | 20.9 | 0.00 | 1.12 | 1.12 | 97 | 1008.5 |
| 20260903053504 | 12 | 217 | 8.0 | 19.3 | 0.00 | 1.12 | 1.12 | 97 | 1008.5 |
| 20260903052505 | 12 | 199 | 3.2 | 16.1 | 0.00 | 1.12 | 1.12 | 97 | 1008.5 |
| 20260903051504 | 12 | 205 | 3.2 | 12.9 | 0.00 | 1.12 | 1.12 | 97 | 1008.5 |
| 20260903051004 | 12 | 208 | 4.8 | 12.9 | 0.00 | 1.12 | 1.12 | 97 | 1008.5 |
| 20260903045004 | 13 | 192 | 4.8 | 11.3 | 0.00 | 1.12 | 1.12 | 97 | 1008.5 |
| 20260903044505 | 13 | 192 | 3.2 | 14.5 | 0.00 | 1.12 | 1.12 | 97 | 1008.5 |
| 20260903044005 | 13 | 194 | 3.2 | 14.5 | 0.00 | 1.12 | 1.12 | 97 | 1008.5 |
| 20260903043505 | 13 | 185 | 8.0 | 20.9 | 0.00 | 1.12 | 1.12 | 97 | 1008.5 |
| 20260903043005 | 13 | 192 | 8.0 | 25.7 | 0.00 | 1.12 | 1.12 | 97 | 1008.5 |
| 20260903042505 | 13 | 127 | 4.8 | 25.7 | 0.00 | 1.12 | 1.12 | 97 | 1007.5 |
| 20260903042004 | 13 | 202 | 11.3 | 24.1 | 0.00 | 1.12 | 1.12 | 97 | 1007.5 |
| 20260903041504 | 13 | 159 | 9.7 | 24.1 | 0.00 | 1.12 | 1.12 | 97 | 1007.5 |
| 20260903041005 | 13 | 150 | 14.5 | 24.1 | 0.00 | 1.12 | 1.12 | 97 | 1008.5 |
| 20260903040008 | 13 | 143 | 14.5 | 29.0 | 0.00 | 1.12 | 1.12 | 98 | 1008.5 |
| 20260903035504 | 13 | 172 | 14.5 | 27.4 | 0.00 | 1.12 | 1.12 | 98 | 1008.5 |
| 20260903035005 | 13 | 149 | 12.9 | 27.4 | 0.00 | 1.12 | 1.12 | 98 | 1008.5 |
| 20260903034505 | 13 | 167 | 9.7 | 27.4 | 0.00 | 1.12 | 1.12 | 98 | 1008.5 |
| 20260903033504 | 13 | 153 | 12.9 | 32.2 | 0.00 | 1.12 | 1.12 | 98 | 1008.5 |
| 20260903033005 | 13 | 154 | 16.1 | 32.2 | 0.00 | 1.12 | 1.12 | 98 | 1008.5 |
| 20260903032005 | 13 | 152 | 8.0 | 24.1 | 0.00 | 1.12 | 1.12 | 98 | 1008.5 |
| 20260903031505 | 13 | 156 | 11.3 | 25.7 | 0.00 | 1.12 | 1.12 | 98 | 1008.5 |
| 20260903031004 | 13 | 138 | 16.1 | 25.7 | 0.00 | 1.12 | 1.12 | 98 | 1008.5 |
| 20260903030505 | 13 | 168 | 14.5 | 24.1 | 0.00 | 1.12 | 1.12 | 98 | 1008.5 |
| 20260903030005 | 13 | 154 | 11.3 | 27.4 | 0.00 | 1.12 | 1.12 | 98 | 1008.5 |
| 20260903025505 | 13 | 141 | 11.3 | 27.4 | 0.00 | 1.12 | 1.12 | 98 | 1008.5 |
| 20260903025005 | 13 | 144 | 11.3 | 24.1 | 0.00 | 1.12 | 1.12 | 98 | 1008.5 |
| 20260903024504 | 13 | 146 | 14.5 | 27.4 | 0.00 | 1.12 | 1.12 | 98 | 1008.5 |
| 20260903024004 | 13 | 197 | 14.5 | 27.4 | 0.00 | 1.12 | 1.12 | 98 | 1008.5 |
| 20260903023505 | 13 | 161 | 17.7 | 32.2 | 0.00 | 1.12 | 1.12 | 98 | 1008.5 |
| 20260903023005 | 13 | 214 | 16.1 | 32.2 | 0.00 | 1.12 | 1.12 | 98 | 1008.5 |
| 20260903022505 | 13 | 181 | 19.3 | 32.2 | 0.00 | 1.12 | 1.12 | 98 | 1007.5 |
| 20260903022007 | 13 | 145 | 14.5 | 24.1 | 0.00 | 1.12 | 1.12 | 98 | 1007.5 |
| 20260903021505 | 13 | 215 | 3.2 | 3.2 | 0.00 | 1.12 | 1.12 | 98 | 1007.5 |
| 20260903021005 | 13 | 215 | 3.2 | 3.2 | 0.00 | 1.12 | 1.12 | 98 | 1007.5 |
| 20260903020504 | 13 | 215 | 3.2 | 3.2 | 0.00 | 1.12 | 1.12 | 98 | 1007.5 |
| 20260903020004 | 13 | 215 | 3.2 | 3.2 | 0.00 | 1.12 | 1.12 | 98 | 1007.5 |
| 20260903015504 | 13 | 215 | 3.2 | 3.2 | 0.00 | 1.12 | 1.12 | 98 | 1006.5 |
| 20260903014504 | 13 | 215 | 3.2 | 3.2 | 0.00 | 1.12 | 1.12 | 98 | 1006.5 |
| 20260903014004 | 13 | 215 | 3.2 | 3.2 | 0.00 | 1.12 | 1.12 | 98 | 1007.5 |
| 20260903013504 | 13 | 215 | 3.2 | 3.2 | 0.00 | 1.12 | 1.12 | 98 | 1007.5 |
| 20260903013004 | 13 | 215 | 3.2 | 3.2 | 0.00 | 1.12 | 1.12 | 98 | 1007.5 |
| 20260903012505 | 14 | 215 | 3.2 | 3.2 | 0.00 | 1.12 | 1.12 | 98 | 1006.5 |
| 20260903012004 | 14 | 215 | 3.2 | 3.2 | 0.00 | 1.12 | 1.12 | 98 | 1006.5 |
| 20260903011505 | 13 | 215 | 3.2 | 3.2 | 0.00 | 1.12 | 1.12 | 98 | 1006.5 |
| 20260903011004 | 13 | 215 | 3.2 | 3.2 | 0.00 | 1.12 | 1.12 | 98 | 1006.5 |
| 20260903010504 | 13 | 215 | 3.2 | 3.2 | 0.00 | 1.12 | 1.12 | 98 | 1006.5 |
| 20260903005504 | 13 | 215 | 3.2 | 3.2 | 0.00 | 1.12 | 1.12 | 98 | 1006.5 |
| 20260903005005 | 13 | 215 | 3.2 | 3.2 | 0.15 | 1.12 | 1.12 | 97 | 1006.5 |
| 20260903004004 | 13 | 215 | 3.2 | 3.2 | 0.25 | 1.12 | 1.12 | 97 | 1006.5 |
| 20260903003504 | 13 | 215 | 3.2 | 3.2 | 0.25 | 1.12 | 1.12 | 97 | 1006.5 |
| 20260903003004 | 13 | 215 | 3.2 | 3.2 | 0.25 | 1.12 | 1.12 | 98 | 1006.5 |
| 20260903002004 | 13 | 215 | 3.2 | 3.2 | 0.38 | 1.12 | 1.12 | 97 | 1006.5 |
| 20260903001004 | 13 | 215 | 3.2 | 3.2 | 0.38 | 1.12 | 1.12 | 97 | 1006.5 |
| 20260903000504 | 13 | 215 | 3.2 | 3.2 | 0.38 | 1.12 | 1.12 | 97 | 1006.5 |
| 20260903000004 | 13 | 215 | 3.2 | 3.2 | 0.38 | 1.12 | 1.12 | 97 | 1006.5 |
| 20260902235504 | 13 | 215 | 3.2 | 3.2 | 0.38 | 1.12 | 1.12 | 96 | 1006.5 |
| 20260902235004 | 13 | 215 | 3.2 | 3.2 | 0.23 | 0.97 | 0.97 | 96 | 1006.5 |
| 20260902234504 | 13 | 215 | 3.2 | 3.2 | 0.23 | 0.97 | 0.97 | 96 | 1006.5 |
| 20260902234004 | 13 | 215 | 3.2 | 3.2 | 0.13 | 0.86 | 0.86 | 96 | 1006.5 |
| 20260902233004 | 14 | 215 | 3.2 | 3.2 | 0.13 | 0.86 | 0.86 | 96 | 1006.5 |
| 20260902232503 | 14 | 215 | 3.2 | 3.2 | 0.00 | 0.74 | 0.74 | 96 | 1006.5 |
| 20260902232004 | 14 | 215 | 3.2 | 3.2 | 0.00 | 0.74 | 0.74 | 96 | 1006.5 |
| 20260902231004 | 14 | 215 | 3.2 | 3.2 | 0.00 | 0.74 | 0.74 | 95 | 1006.5 |
| 20260902230504 | 14 | 215 | 3.2 | 3.2 | 0.00 | 0.74 | 0.74 | 95 | 1006.5 |
| 20260902230005 | 14 | 215 | 3.2 | 3.2 | 0.00 | 0.74 | 0.74 | 95 | 1006.5 |
| 20260902225504 | 14 | 215 | 3.2 | 3.2 | 0.00 | 0.74 | 0.74 | 95 | 1006.5 |
| 20260902225004 | 14 | 215 | 3.2 | 3.2 | 0.00 | 0.74 | 0.74 | 94 | 1006.5 |
| 20260902224504 | 14 | 215 | 3.2 | 3.2 | 0.00 | 0.74 | 0.74 | 94 | 1006.5 |
| 20260902223504 | 14 | 215 | 3.2 | 3.2 | 0.00 | 0.74 | 0.74 | 94 | 1006.5 |
| 20260902223003 | 14 | 215 | 3.2 | 3.2 | 0.00 | 0.74 | 0.74 | 95 | 1006.5 |
| 20260902222504 | 14 | 215 | 3.2 | 3.2 | 0.00 | 0.74 | 0.74 | 95 | 1006.5 |
| 20260902222004 | 14 | 215 | 3.2 | 3.2 | 0.00 | 0.74 | 0.74 | 95 | 1006.5 |
| 20260902221504 | 14 | 215 | 3.2 | 3.2 | 0.00 | 0.74 | 0.74 | 94 | 1006.5 |
| 20260902221004 | 14 | 215 | 3.2 | 3.2 | 0.00 | 0.74 | 0.74 | 94 | 1006.5 |
| 20260902220504 | 14 | 215 | 3.2 | 3.2 | 0.00 | 0.74 | 0.74 | 94 | 1006.5 |
| 20260902220004 | 14 | 215 | 3.2 | 3.2 | 0.00 | 0.74 | 0.74 | 94 | 1006.5 |
| 20260902215504 | 14 | 215 | 3.2 | 3.2 | 0.00 | 0.74 | 0.74 | 94 | 1006.5 |
| 20260902215004 | 14 | 215 | 3.2 | 3.2 | 0.00 | 0.74 | 0.74 | 94 | 1006.5 |
| 20260902214003 | 14 | 215 | 3.2 | 3.2 | 0.00 | 0.74 | 0.74 | 94 | 1006.5 |
| 20260902213504 | 14 | 215 | 3.2 | 3.2 | 0.00 | 0.74 | 0.74 | 94 | 1006.5 |
| 20260902213003 | 14 | 215 | 3.2 | 3.2 | 0.00 | 0.74 | 0.74 | 94 | 1006.5 |
| 20260902212504 | 14 | 215 | 3.2 | 3.2 | 0.00 | 0.74 | 0.74 | 94 | 1006.5 |
| 20260902212004 | 14 | 215 | 3.2 | 3.2 | 0.13 | 0.74 | 0.74 | 94 | 1006.5 |
| 20260902211504 | 14 | 215 | 3.2 | 3.2 | 0.13 | 0.74 | 0.74 | 94 | 1006.5 |
| 20260902211004 | 14 | 215 | 3.2 | 3.2 | 0.13 | 0.74 | 0.74 | 94 | 1006.5 |
| 20260902210504 | 14 | 215 | 3.2 | 3.2 | 0.13 | 0.74 | 0.74 | 94 | 1006.5 |
| 20260902210004 | 13 | 215 | 3.2 | 3.2 | 0.25 | 0.74 | 0.74 | 94 | 1006.5 |
| 20260902205503 | 13 | 215 | 3.2 | 3.2 | 0.25 | 0.74 | 0.74 | 93 | 1006.5 |
| 20260902205004 | 13 | 215 | 3.2 | 3.2 | 0.25 | 0.74 | 0.74 | 93 | 1006.5 |
| 20260902204504 | 13 | 215 | 3.2 | 3.2 | 0.36 | 0.74 | 0.74 | 93 | 1006.5 |
| 20260902204004 | 13 | 215 | 3.2 | 3.2 | 0.36 | 0.74 | 0.74 | 93 | 1006.5 |
| 20260902203504 | 13 | 215 | 3.2 | 3.2 | 0.51 | 0.74 | 0.74 | 93 | 1006.5 |
| 20260902203004 | 13 | 215 | 3.2 | 3.2 | 0.51 | 0.74 | 0.74 | 93 | 1006.5 |
| 20260902202504 | 13 | 215 | 3.2 | 3.2 | 0.51 | 0.74 | 0.74 | 93 | 1005.5 |
| 20260902202004 | 13 | 215 | 3.2 | 3.2 | 0.38 | 0.61 | 0.61 | 93 | 1005.5 |
| 20260902201507 | 13 | 215 | 3.2 | 3.2 | 0.38 | 0.61 | 0.61 | 92 | 1005.5 |
| 20260902201007 | 13 | 215 | 3.2 | 3.2 | 0.48 | 0.61 | 0.61 | 92 | 1006.5 |
| 20260902200507 | 13 | 215 | 3.2 | 3.2 | 0.48 | 0.61 | 0.61 | 92 | 1006.5 |
| 20260902200006 | 13 | 215 | 3.2 | 3.2 | 0.38 | 0.48 | 0.48 | 92 | 1006.5 |
| 20260902195506 | 13 | 215 | 3.2 | 3.2 | 0.38 | 0.48 | 0.48 | 91 | 1006.5 |
| 20260902195006 | 13 | 215 | 3.2 | 3.2 | 0.38 | 0.48 | 0.48 | 91 | 1006.5 |
| 20260902194507 | 14 | 215 | 3.2 | 3.2 | 0.25 | 0.38 | 0.38 | 91 | 1006.5 |
| 20260902193506 | 14 | 215 | 3.2 | 3.2 | 0.13 | 0.23 | 0.23 | 90 | 1006.5 |
| 20260902193007 | 14 | 215 | 3.2 | 3.2 | 0.13 | 0.23 | 0.23 | 89 | 1006.5 |
| 20260902192507 | 14 | 215 | 3.2 | 3.2 | 0.13 | 0.23 | 0.23 | 89 | 1006.5 |
| 20260902192006 | 14 | 215 | 3.2 | 3.2 | 0.23 | 0.23 | 0.23 | 89 | 1006.5 |
| 20260902191507 | 14 | 215 | 3.2 | 3.2 | 0.23 | 0.23 | 0.23 | 89 | 1006.5 |
| 20260902191007 | 14 | 215 | 3.2 | 3.2 | 0.13 | 0.13 | 0.13 | 88 | 1006.5 |
| 20260902190507 | 14 | 215 | 3.2 | 3.2 | 0.13 | 0.13 | 0.13 | 88 | 1006.5 |
| 20260902190006 | 14 | 215 | 3.2 | 3.2 | 0.13 | 0.13 | 0.13 | 88 | 1006.5 |
| 20260902185507 | 14 | 215 | 3.2 | 3.2 | 0.13 | 0.13 | 0.13 | 88 | 1006.5 |
| 20260902185007 | 14 | 215 | 3.2 | 3.2 | 0.13 | 0.13 | 0.13 | 88 | 1006.5 |
| 20260902184506 | 14 | 215 | 3.2 | 3.2 | 0.13 | 0.13 | 0.13 | 87 | 1006.5 |
| 20260902183506 | 14 | 215 | 3.2 | 3.2 | 0.13 | 0.13 | 0.13 | 87 | 1005.5 |
| 20260902183006 | 14 | 215 | 3.2 | 3.2 | 0.13 | 0.13 | 0.13 | 86 | 1005.5 |
| 20260902182506 | 14 | 215 | 3.2 | 3.2 | 0.13 | 0.13 | 0.13 | 85 | 1006.5 |
| 20260902182007 | 15 | 215 | 3.2 | 3.2 | 0.00 | 0.00 | 0.00 | 83 | 1006.5 |
| 20260902181506 | 15 | 215 | 3.2 | 3.2 | 0.00 | 0.00 | 0.00 | 82 | 1006.5 |
| 20260902181006 | 15 | 215 | 3.2 | 3.2 | 0.00 | 0.00 | 0.00 | 81 | 1006.5 |
| 20260902180506 | 15 | 215 | 3.2 | 3.2 | 0.00 | 0.00 | 0.00 | 80 | 1006.5 |
| 20260902180008 | 15 | 215 | 3.2 | 3.2 | 0.00 | 0.00 | 0.00 | 79 | 1006.5 |
| 20260902175506 | 15 | 215 | 3.2 | 3.2 | 0.00 | 0.00 | 0.00 | 78 | 1006.5 |
| 20260902175007 | 15 | 215 | 3.2 | 3.2 | 0.00 | 0.00 | 0.00 | 77 | 1006.5 |